| time (UTC) | temp F | wind direction | speed MPH | gust MPH | rain 1hr in | rain 24hr in | rain mn in | humidity % | barometer mb |
| 20260510152506 | 54 | 79 | 3.0 | 10.0 | 0.00 | 0.00 | 0.00 | 63 | 1015.9 |
| 20260510152010 | 54 | 108 | 0.0 | 5.0 | 0.00 | 0.00 | 0.00 | 64 | 1015.9 |
| 20260510151525 | 54 | 133 | 1.0 | 5.0 | 0.00 | 0.00 | 0.00 | 63 | 1016.0 |
| 20260510151012 | 54 | 33 | 0.0 | 5.0 | 0.00 | 0.00 | 0.00 | 63 | 1016.0 |
| 20260510150508 | 54 | 236 | 0.0 | 7.0 | 0.00 | 0.00 | 0.00 | 64 | 1016.1 |
| 20260510150023 | 54 | 79 | 1.0 | 7.0 | 0.00 | 0.00 | 0.00 | 65 | 1016.1 |
| 20260510145512 | 54 | 241 | 1.0 | 6.0 | 0.00 | 0.00 | 0.00 | 65 | 1016.2 |
| 20260510145004 | 54 | 44 | 1.0 | 8.0 | 0.00 | 0.00 | 0.00 | 65 | 1016.3 |
| 20260510144505 | 54 | 51 | 3.0 | 8.0 | 0.00 | 0.00 | 0.00 | 65 | 1016.4 |
| 20260510144005 | 54 | 68 | 0.0 | 6.0 | 0.00 | 0.00 | 0.00 | 65 | 1016.5 |
| 20260510143505 | 54 | 16 | 0.0 | 5.0 | 0.00 | 0.00 | 0.00 | 66 | 1016.4 |
| 20260510143012 | 54 | 35 | 0.0 | 12.0 | 0.00 | 0.00 | 0.00 | 66 | 1016.4 |
| 20260510142510 | 54 | 35 | 1.0 | 12.0 | 0.00 | 0.00 | 0.00 | 65 | 1016.4 |
| 20260510142008 | 55 | 233 | 1.0 | 6.0 | 0.00 | 0.00 | 0.00 | 66 | 1016.4 |
| 20260510141515 | 54 | 102 | 0.0 | 7.0 | 0.00 | 0.00 | 0.00 | 67 | 1016.5 |
| 20260510141009 | 54 | 133 | 1.0 | 7.0 | 0.00 | 0.00 | 0.00 | 66 | 1016.5 |
| 20260510140506 | 54 | 235 | 0.0 | 11.0 | 0.00 | 0.00 | 0.00 | 67 | 1016.5 |
| 20260510140019 | 54 | 158 | 3.0 | 11.0 | 0.00 | 0.00 | 0.00 | 67 | 1016.6 |
| 20260510135508 | 54 | 144 | 0.0 | 7.0 | 0.00 | 0.00 | 0.00 | 67 | 1016.5 |
| 20260510135007 | 55 | 103 | 0.0 | 11.0 | 0.00 | 0.00 | 0.00 | 67 | 1016.5 |
| 20260510134525 | 55 | 69 | 1.0 | 11.0 | 0.00 | 0.00 | 0.00 | 67 | 1016.6 |
| 20260510134010 | 55 | 124 | 1.0 | 8.0 | 0.00 | 0.00 | 0.00 | 67 | 1016.6 |
| 20260510133511 | 55 | 266 | 1.0 | 8.0 | 0.00 | 0.00 | 0.00 | 67 | 1016.6 |
| 20260510133006 | 55 | 127 | 1.0 | 7.0 | 0.00 | 0.00 | 0.00 | 68 | 1016.7 |
| 20260510132507 | 54 | 284 | 1.0 | 7.0 | 0.00 | 0.00 | 0.00 | 68 | 1016.6 |
| 20260510132008 | 54 | 37 | 0.0 | 7.0 | 0.00 | 0.00 | 0.00 | 69 | 1016.7 |
| 20260510131514 | 54 | 74 | 1.0 | 8.0 | 0.00 | 0.00 | 0.00 | 69 | 1016.7 |
| 20260510131007 | 54 | 64 | 1.0 | 9.0 | 0.00 | 0.00 | 0.00 | 68 | 1016.7 |
| 20260510130507 | 54 | 32 | 4.0 | 10.0 | 0.00 | 0.00 | 0.00 | 68 | 1016.9 |
| 20260510130025 | 54 | 51 | 0.0 | 10.0 | 0.00 | 0.00 | 0.00 | 69 | 1016.9 |
| 20260510125508 | 54 | 94 | 0.0 | 7.0 | 0.00 | 0.00 | 0.00 | 69 | 1016.9 |
| 20260510125009 | 54 | 30 | 1.0 | 6.0 | 0.00 | 0.00 | 0.00 | 70 | 1017.0 |
| 20260510124521 | 54 | 260 | 0.0 | 9.0 | 0.00 | 0.00 | 0.00 | 70 | 1017.0 |
| 20260510124010 | 54 | 35 | 0.0 | 9.0 | 0.00 | 0.00 | 0.00 | 71 | 1017.1 |
| 20260510123511 | 54 | 61 | 1.0 | 5.0 | 0.00 | 0.00 | 0.00 | 71 | 1017.1 |
| 20260510123025 | 54 | 34 | 1.0 | 7.0 | 0.00 | 0.00 | 0.00 | 71 | 1017.1 |
| 20260510122511 | 54 | 111 | 0.0 | 11.0 | 0.00 | 0.00 | 0.00 | 71 | 1017.3 |
| 20260510122011 | 54 | 120 | 0.0 | 11.0 | 0.00 | 0.00 | 0.00 | 70 | 1017.2 |
| 20260510121511 | 55 | 79 | 2.0 | 11.0 | 0.00 | 0.00 | 0.00 | 70 | 1017.2 |
| 20260510121006 | 55 | 46 | 1.0 | 10.0 | 0.00 | 0.00 | 0.00 | 69 | 1017.2 |
| 20260510120508 | 55 | 6 | 1.0 | 10.0 | 0.00 | 0.00 | 0.00 | 69 | 1017.2 |
| 20260510120016 | 55 | 52 | 3.0 | 10.0 | 0.00 | 0.00 | 0.00 | 68 | 1017.2 |
| 20260510115508 | 55 | 253 | 1.0 | 10.0 | 0.00 | 0.00 | 0.00 | 68 | 1017.2 |
| 20260510115010 | 55 | 32 | 4.0 | 10.0 | 0.00 | 0.00 | 0.00 | 67 | 1017.2 |
| 20260510114526 | 56 | 314 | 0.0 | 8.0 | 0.00 | 0.00 | 0.00 | 68 | 1017.2 |
| 20260510114011 | 56 | 49 | 3.0 | 8.0 | 0.00 | 0.00 | 0.00 | 66 | 1017.3 |
| 20260510113509 | 56 | 51 | 0.0 | 12.0 | 0.00 | 0.00 | 0.00 | 65 | 1017.3 |
| 20260510113033 | 56 | 315 | 5.0 | 12.0 | 0.00 | 0.00 | 0.00 | 64 | 1017.3 |
| 20260510112510 | 56 | 181 | 3.0 | 12.0 | 0.00 | 0.00 | 0.00 | 64 | 1017.4 |
| 20260510112009 | 56 | 49 | 4.0 | 12.0 | 0.00 | 0.00 | 0.00 | 64 | 1017.4 |
| 20260510111531 | 57 | 37 | 1.0 | 11.0 | 0.00 | 0.00 | 0.00 | 65 | 1017.4 |
| 20260510111012 | 57 | 78 | 3.0 | 11.0 | 0.00 | 0.00 | 0.00 | 64 | 1017.6 |
| 20260510110510 | 57 | 231 | 1.0 | 10.0 | 0.00 | 0.00 | 0.00 | 65 | 1017.5 |
| 20260510110034 | 57 | 75 | 2.0 | 9.0 | 0.00 | 0.00 | 0.00 | 64 | 1017.6 |
| 20260510105508 | 57 | 7 | 2.0 | 9.0 | 0.00 | 0.00 | 0.00 | 64 | 1017.5 |
| 20260510105008 | 57 | 359 | 1.0 | 9.0 | 0.00 | 0.00 | 0.00 | 64 | 1017.6 |
| 20260510104519 | 57 | 44 | 2.0 | 9.0 | 0.00 | 0.00 | 0.00 | 64 | 1017.6 |
| 20260510104009 | 57 | 238 | 0.0 | 6.0 | 0.00 | 0.00 | 0.00 | 66 | 1017.5 |
| 20260510103508 | 56 | 34 | 0.0 | 9.0 | 0.00 | 0.00 | 0.00 | 67 | 1017.6 |
| 20260510103023 | 56 | 191 | 0.0 | 11.0 | 0.00 | 0.00 | 0.00 | 67 | 1017.6 |
| 20260510102510 | 56 | 344 | 1.0 | 11.0 | 0.00 | 0.00 | 0.00 | 67 | 1017.6 |
| 20260510102013 | 56 | 8 | 1.0 | 10.0 | 0.00 | 0.00 | 0.00 | 66 | 1017.7 |
| 20260510101524 | 56 | 135 | 2.0 | 10.0 | 0.00 | 0.00 | 0.00 | 66 | 1017.7 |
| 20260510101011 | 56 | 55 | 1.0 | 10.0 | 0.00 | 0.00 | 0.00 | 65 | 1017.7 |
| 20260510100511 | 56 | 16 | 0.0 | 9.0 | 0.00 | 0.00 | 0.00 | 65 | 1017.7 |
| 20260510100033 | 56 | 4 | 0.0 | 5.0 | 0.00 | 0.00 | 0.00 | 67 | 1017.7 |
| 20260510095509 | 56 | 2 | 0.0 | 5.0 | 0.00 | 0.00 | 0.00 | 67 | 1017.7 |
| 20260510095008 | 55 | 57 | 0.0 | 5.0 | 0.00 | 0.00 | 0.00 | 68 | 1017.7 |
| 20260510094532 | 54 | 32 | 0.0 | 11.0 | 0.00 | 0.00 | 0.00 | 68 | 1017.8 |
| 20260510094011 | 54 | 42 | 2.0 | 13.0 | 0.00 | 0.00 | 0.00 | 68 | 1017.8 |
| 20260510093021 | 54 | 27 | 2.0 | 10.0 | 0.00 | 0.00 | 0.00 | 68 | 1017.8 |
| 20260510092510 | 54 | 62 | 2.0 | 12.0 | 0.00 | 0.00 | 0.00 | 68 | 1017.9 |
| 20260510092014 | 54 | 115 | 0.0 | 12.0 | 0.00 | 0.00 | 0.00 | 69 | 1017.9 |
| 20260510091521 | 54 | 248 | 0.0 | 12.0 | 0.00 | 0.00 | 0.00 | 70 | 1018.0 |
| 20260510091009 | 54 | 46 | 3.0 | 12.0 | 0.00 | 0.00 | 0.00 | 69 | 1017.9 |
| 20260510090511 | 54 | 305 | 1.0 | 13.0 | 0.00 | 0.00 | 0.00 | 69 | 1018.0 |
| 20260510090027 | 54 | 148 | 0.0 | 13.0 | 0.00 | 0.00 | 0.00 | 72 | 1018.1 |
| 20260510085512 | 54 | 108 | 2.0 | 8.0 | 0.00 | 0.00 | 0.00 | 72 | 1018.1 |
| 20260510085008 | 53 | 98 | 0.0 | 7.0 | 0.00 | 0.00 | 0.00 | 74 | 1018.1 |
| 20260510084528 | 53 | 20 | 0.0 | 9.0 | 0.00 | 0.00 | 0.00 | 74 | 1018.2 |
| 20260510084010 | 52 | 91 | 2.0 | 8.0 | 0.00 | 0.00 | 0.00 | 74 | 1018.3 |
| 20260510083511 | 52 | 40 | 1.0 | 10.0 | 0.00 | 0.00 | 0.00 | 74 | 1018.4 |
| 20260510083028 | 52 | 86 | 2.0 | 10.0 | 0.00 | 0.00 | 0.00 | 75 | 1018.3 |
| 20260510082511 | 52 | 72 | 0.0 | 10.0 | 0.00 | 0.00 | 0.00 | 76 | 1018.3 |
| 20260510082010 | 51 | 301 | 1.0 | 10.0 | 0.00 | 0.00 | 0.00 | 77 | 1018.3 |
| 20260510080510 | 51 | 26 | 0.0 | 7.0 | 0.00 | 0.00 | 0.00 | 78 | 1018.3 |
| 20260510080024 | 51 | 258 | 1.0 | 7.0 | 0.00 | 0.00 | 0.00 | 78 | 1018.3 |
| 20260510075510 | 51 | 9 | 0.0 | 5.0 | 0.00 | 0.00 | 0.00 | 79 | 1018.3 |
| 20260510075012 | 50 | 39 | 1.0 | 7.0 | 0.00 | 0.00 | 0.00 | 79 | 1018.3 |
| 20260510074534 | 50 | 221 | 1.0 | 10.0 | 0.00 | 0.00 | 0.00 | 79 | 1018.3 |
| 20260510074009 | 50 | 108 | 1.0 | 10.0 | 0.00 | 0.00 | 0.00 | 79 | 1018.3 |
| 20260510073508 | 50 | 41 | 1.0 | 10.0 | 0.00 | 0.00 | 0.00 | 80 | 1018.3 |
| 20260510073011 | 50 | 34 | 2.0 | 10.0 | 0.00 | 0.00 | 0.00 | 80 | 1018.3 |
| 20260510072505 | 50 | 27 | 0.0 | 2.0 | 0.00 | 0.00 | 0.00 | 80 | 1018.3 |
| 20260510072010 | 50 | 51 | 0.0 | 2.0 | 0.00 | 0.00 | 0.00 | 81 | 1018.3 |
| 20260510071524 | 50 | 35 | 0.0 | 8.0 | 0.00 | 0.00 | 0.00 | 81 | 1018.3 |
| 20260510071003 | 50 | 19 | 2.0 | 8.0 | 0.00 | 0.00 | 0.00 | 81 | 1018.2 |
| 20260510070503 | 50 | 49 | 1.0 | 7.0 | 0.00 | 0.00 | 0.00 | 82 | 1018.2 |
| 20260510070006 | 49 | 94 | 0.0 | 7.0 | 0.00 | 0.00 | 0.00 | 82 | 1018.2 |
| 20260510065504 | 49 | 15 | 1.0 | 7.0 | 0.00 | 0.00 | 0.00 | 82 | 1018.1 |
| 20260510065004 | 49 | 300 | 1.0 | 8.0 | 0.00 | 0.00 | 0.00 | 82 | 1018.1 |
| 20260510064505 | 49 | 51 | 1.0 | 8.0 | 0.00 | 0.00 | 0.00 | 82 | 1018.0 |
| 20260510064003 | 49 | 97 | 0.0 | 8.0 | 0.00 | 0.00 | 0.00 | 83 | 1018.1 |
| 20260510063503 | 49 | 30 | 1.0 | 8.0 | 0.00 | 0.00 | 0.00 | 83 | 1018.2 |
| 20260510063011 | 49 | 316 | 2.0 | 8.0 | 0.00 | 0.00 | 0.00 | 83 | 1018.2 |
| 20260510062506 | 49 | 81 | 0.0 | 7.0 | 0.00 | 0.00 | 0.00 | 84 | 1018.1 |
| 20260510062010 | 49 | 172 | 0.0 | 9.0 | 0.00 | 0.00 | 0.00 | 84 | 1018.0 |
| 20260510061516 | 49 | 46 | 0.0 | 9.0 | 0.00 | 0.00 | 0.00 | 84 | 1018.0 |
| 20260510061007 | 48 | 48 | 0.0 | 6.0 | 0.00 | 0.00 | 0.00 | 84 | 1018.0 |
| 20260510060509 | 48 | 200 | 2.0 | 6.0 | 0.00 | 0.00 | 0.00 | 84 | 1017.9 |
| 20260510060020 | 48 | 113 | 1.0 | 8.0 | 0.00 | 0.00 | 0.00 | 84 | 1017.9 |
| 20260510055510 | 48 | 39 | 2.0 | 9.0 | 0.00 | 0.00 | 0.00 | 84 | 1017.9 |
| 20260510055004 | 48 | 76 | 0.0 | 11.0 | 0.00 | 0.00 | 0.00 | 84 | 1017.9 |
| 20260510054506 | 48 | 106 | 3.0 | 11.0 | 0.00 | 0.00 | 0.00 | 84 | 1017.9 |
| 20260510054005 | 48 | 101 | 1.0 | 8.0 | 0.00 | 0.00 | 0.00 | 85 | 1017.9 |
| 20260510053503 | 48 | 30 | 0.0 | 6.0 | 0.00 | 0.00 | 0.00 | 85 | 1017.9 |
| 20260510053008 | 48 | 120 | 0.0 | 6.0 | 0.00 | 0.00 | 0.00 | 85 | 1017.9 |
| 20260510052506 | 48 | 245 | 0.0 | 4.0 | 0.00 | 0.00 | 0.00 | 85 | 1018.0 |
| 20260510052006 | 48 | 65 | 1.0 | 4.0 | 0.00 | 0.00 | 0.00 | 85 | 1018.0 |
| 20260510051511 | 48 | 32 | 0.0 | 3.0 | 0.00 | 0.00 | 0.00 | 85 | 1018.1 |
| 20260510051008 | 48 | 55 | 0.0 | 2.0 | 0.00 | 0.00 | 0.00 | 85 | 1018.0 |
| 20260510050510 | 48 | 105 | 0.0 | 6.0 | 0.00 | 0.00 | 0.00 | 85 | 1018.0 |
| 20260510050017 | 48 | 66 | 1.0 | 6.0 | 0.00 | 0.00 | 0.00 | 85 | 1018.0 |
| 20260510045508 | 48 | 57 | 0.0 | 6.0 | 0.00 | 0.00 | 0.00 | 85 | 1017.9 |
| 20260510045009 | 48 | 11 | 0.0 | 6.0 | 0.00 | 0.00 | 0.00 | 85 | 1017.8 |
| 20260510044524 | 48 | 46 | 0.0 | 6.0 | 0.00 | 0.00 | 0.00 | 85 | 1017.9 |
| 20260510044008 | 48 | 60 | 0.0 | 4.0 | 0.00 | 0.00 | 0.00 | 85 | 1017.9 |
| 20260510043511 | 48 | 35 | 1.0 | 4.0 | 0.00 | 0.00 | 0.00 | 85 | 1017.9 |
| 20260510043010 | 48 | 72 | 0.0 | 4.0 | 0.00 | 0.00 | 0.00 | 85 | 1017.9 |
| 20260510042508 | 48 | 42 | 0.0 | 7.0 | 0.00 | 0.00 | 0.00 | 85 | 1017.9 |
| 20260510042005 | 48 | 91 | 0.0 | 7.0 | 0.00 | 0.00 | 0.00 | 85 | 1017.8 |
| 20260510041509 | 48 | 185 | 0.0 | 3.0 | 0.00 | 0.00 | 0.00 | 85 | 1017.9 |
| 20260510041006 | 48 | 15 | 0.0 | 3.0 | 0.00 | 0.00 | 0.00 | 85 | 1017.9 |
| 20260510040508 | 48 | 68 | 0.0 | 3.0 | 0.00 | 0.00 | 0.00 | 85 | 1017.9 |
| 20260510040016 | 48 | 360 | 0.0 | 2.0 | 0.00 | 0.00 | 0.00 | 85 | 1018.1 |
| 20260510035507 | 48 | 236 | 0.0 | 2.0 | 0.00 | 0.00 | 0.00 | 85 | 1018.1 |
| 20260510035007 | 48 | 112 | 0.0 | 4.0 | 0.00 | 0.00 | 0.00 | 85 | 1018.1 |
| 20260510034519 | 48 | 266 | 0.0 | 4.0 | 0.00 | 0.00 | 0.00 | 85 | 1018.2 |
| 20260510034009 | 48 | 255 | 0.0 | 1.0 | 0.00 | 0.00 | 0.00 | 85 | 1018.2 |
| 20260510033510 | 48 | 11 | 0.0 | 3.0 | 0.00 | 0.00 | 0.00 | 85 | 1018.2 |
| 20260510033024 | 48 | 345 | 0.0 | 5.0 | 0.00 | 0.00 | 0.00 | 85 | 1018.2 |
| 20260510032510 | 48 | 94 | 0.0 | 5.0 | 0.00 | 0.00 | 0.00 | 85 | 1018.2 |
| 20260510032012 | 48 | 39 | 0.0 | 3.0 | 0.00 | 0.00 | 0.00 | 84 | 1018.3 |
| 20260510031529 | 48 | 77 | 0.0 | 5.0 | 0.00 | 0.00 | 0.00 | 84 | 1018.3 |
| 20260510031006 | 48 | 245 | 0.0 | 5.0 | 0.00 | 0.00 | 0.00 | 84 | 1018.4 |
| 20260510030505 | 48 | 60 | 0.0 | 4.0 | 0.00 | 0.00 | 0.00 | 85 | 1018.4 |
| 20260510030014 | 48 | 259 | 0.0 | 4.0 | 0.00 | 0.00 | 0.00 | 85 | 1018.3 |
| 20260510025508 | 48 | 262 | 0.0 | 3.0 | 0.00 | 0.00 | 0.00 | 85 | 1018.3 |
| 20260510025008 | 48 | 98 | 0.0 | 6.0 | 0.00 | 0.00 | 0.00 | 85 | 1018.3 |
| 20260510024518 | 48 | 73 | 0.0 | 6.0 | 0.00 | 0.00 | 0.00 | 85 | 1018.3 |
| 20260510024008 | 48 | 86 | 0.0 | 4.0 | 0.00 | 0.00 | 0.00 | 85 | 1018.3 |
| 20260510023508 | 48 | 141 | 0.0 | 4.0 | 0.00 | 0.00 | 0.00 | 85 | 1018.3 |
| 20260510023022 | 48 | 233 | 0.0 | 3.0 | 0.00 | 0.00 | 0.00 | 85 | 1018.3 |
| 20260510022513 | 48 | 205 | 0.0 | 1.0 | 0.00 | 0.00 | 0.00 | 85 | 1018.3 |
| 20260510022008 | 48 | 85 | 0.0 | 0.0 | 0.00 | 0.00 | 0.00 | 85 | 1018.3 |
| 20260510021533 | 48 | 167 | 0.0 | 4.0 | 0.00 | 0.00 | 0.00 | 85 | 1018.4 |
| 20260510021008 | 48 | 59 | 0.0 | 5.0 | 0.00 | 0.00 | 0.00 | 85 | 1018.4 |
| 20260510020507 | 49 | 280 | 0.0 | 5.0 | 0.00 | 0.00 | 0.00 | 84 | 1018.2 |
| 20260510020030 | 49 | 129 | 0.0 | 4.0 | 0.00 | 0.00 | 0.00 | 84 | 1018.2 |
| 20260510015510 | 49 | 233 | 0.0 | 4.0 | 0.00 | 0.00 | 0.00 | 84 | 1018.2 |
| 20260510015008 | 49 | 84 | 0.0 | 0.0 | 0.00 | 0.00 | 0.00 | 83 | 1018.3 |
| 20260510014518 | 49 | 266 | 0.0 | 0.0 | 0.00 | 0.00 | 0.00 | 83 | 1018.4 |
| 20260510014008 | 49 | 46 | 0.0 | 0.0 | 0.00 | 0.00 | 0.00 | 82 | 1018.3 |
| 20260510013506 | 49 | 72 | 0.0 | 0.0 | 0.00 | 0.00 | 0.00 | 82 | 1018.3 |
| 20260510013003 | 49 | 105 | 0.0 | 0.0 | 0.00 | 0.00 | 0.00 | 81 | 1018.4 |
| 20260510012505 | 49 | 60 | 0.0 | 0.0 | 0.00 | 0.00 | 0.00 | 80 | 1018.5 |
| 20260510012006 | 49 | 293 | 0.0 | 0.0 | 0.00 | 0.00 | 0.00 | 79 | 1018.6 |
| 20260510011505 | 49 | 158 | 0.0 | 0.0 | 0.00 | 0.00 | 0.00 | 77 | 1018.6 |
| 20260510011004 | 50 | 82 | 0.0 | 0.0 | 0.00 | 0.00 | 0.00 | 75 | 1018.4 |
| 20260510010503 | 50 | 245 | 0.0 | 0.0 | 0.00 | 0.00 | 0.00 | 74 | 1018.3 |
| 20260510010008 | 50 | 80 | 0.0 | 0.0 | 0.00 | 0.00 | 0.00 | 73 | 1018.3 |
| 20260510005505 | 50 | 236 | 0.0 | 0.0 | 0.00 | 0.00 | 0.00 | 72 | 1018.3 |
| 20260510005005 | 50 | 53 | 0.0 | 0.0 | 0.00 | 0.00 | 0.00 | 70 | 1018.3 |
| 20260510004516 | 50 | 359 | 0.0 | 0.0 | 0.00 | 0.00 | 0.00 | 68 | 1018.4 |
| 20260510004009 | 51 | 110 | 0.0 | 0.0 | 0.00 | 0.00 | 0.00 | 67 | 1018.4 |
| 20260510003507 | 51 | 41 | 0.0 | 0.0 | 0.00 | 0.00 | 0.00 | 66 | 1018.4 |
| 20260510003019 | 51 | 71 | 0.0 | 5.0 | 0.00 | 0.00 | 0.00 | 66 | 1018.4 |
| 20260510002506 | 51 | 333 | 1.0 | 7.0 | 0.00 | 0.00 | 0.00 | 65 | 1018.4 |
| 20260510002008 | 51 | 4 | 1.0 | 7.0 | 0.00 | 0.00 | 0.00 | 64 | 1018.4 |
| 20260510001510 | 51 | 26 | 0.0 | 5.0 | 0.00 | 0.00 | 0.00 | 63 | 1018.4 |
| 20260510001003 | 52 | 78 | 0.0 | 5.0 | 0.00 | 0.00 | 0.00 | 63 | 1018.4 |
| 20260510000502 | 52 | 267 | 0.0 | 7.0 | 0.00 | 0.00 | 0.00 | 63 | 1018.3 |
| 20260510000005 | 52 | 318 | 1.0 | 7.0 | 0.00 | 0.00 | 0.00 | 63 | 1018.3 |
| 20260509235504 | 52 | 30 | 0.0 | 0.0 | 0.00 | 0.00 | 0.00 | 63 | 1018.3 |
| 20260509235003 | 52 | 81 | 0.0 | 0.0 | 0.00 | 0.00 | 0.00 | 63 | 1018.3 |
| 20260509234513 | 53 | 26 | 0.0 | 0.0 | 0.00 | 0.00 | 0.00 | 63 | 1018.3 |
| 20260509234005 | 53 | 56 | 0.0 | 0.0 | 0.00 | 0.00 | 0.00 | 63 | 1018.2 |
| 20260509233504 | 53 | 37 | 0.0 | 2.0 | 0.00 | 0.00 | 0.00 | 63 | 1018.1 |
| 20260509233018 | 53 | 254 | 0.0 | 3.0 | 0.00 | 0.00 | 0.00 | 62 | 1018.1 |
| 20260509232504 | 53 | 212 | 0.0 | 3.0 | 0.00 | 0.00 | 0.00 | 62 | 1018.1 |
| 20260509232006 | 53 | 110 | 0.0 | 0.0 | 0.00 | 0.00 | 0.00 | 61 | 1018.0 |
| 20260509231521 | 52 | 114 | 0.0 | 0.0 | 0.00 | 0.00 | 0.00 | 61 | 1018.1 |
| 20260509231006 | 52 | 25 | 0.0 | 0.0 | 0.00 | 0.00 | 0.00 | 62 | 1018.1 |
| 20260509230507 | 52 | 129 | 0.0 | 0.0 | 0.00 | 0.00 | 0.00 | 63 | 1018.1 |
| 20260509230022 | 52 | 56 | 0.0 | 0.0 | 0.00 | 0.00 | 0.00 | 63 | 1018.1 |
| 20260509225504 | 52 | 56 | 0.0 | 0.0 | 0.00 | 0.00 | 0.00 | 63 | 1018.1 |
| 20260509225003 | 52 | 56 | 0.0 | 0.0 | 0.00 | 0.00 | 0.00 | 63 | 1018.1 |
| 20260509224506 | 52 | 72 | 0.0 | 0.0 | 0.00 | 0.00 | 0.00 | 64 | 1018.1 |
| 20260509224008 | 51 | 72 | 0.0 | 0.0 | 0.00 | 0.00 | 0.00 | 65 | 1018.0 |
| 20260509223510 | 51 | 72 | 0.0 | 0.0 | 0.00 | 0.00 | 0.00 | 66 | 1018.0 |
| 20260509223009 | 51 | 72 | 0.0 | 0.0 | 0.00 | 0.00 | 0.00 | 65 | 1017.9 |
| 20260509222504 | 51 | 72 | 0.0 | 0.0 | 0.00 | 0.00 | 0.00 | 65 | 1017.9 |
| 20260509222012 | 51 | 72 | 0.0 | 0.0 | 0.00 | 0.00 | 0.00 | 64 | 1018.0 |
| 20260509221527 | 52 | 72 | 0.0 | 0.0 | 0.00 | 0.00 | 0.00 | 65 | 1018.0 |
| 20260509221006 | 52 | 72 | 0.0 | 0.0 | 0.00 | 0.00 | 0.00 | 62 | 1017.9 |
| 20260509220507 | 52 | 72 | 0.0 | 0.0 | 0.00 | 0.00 | 0.00 | 62 | 1017.9 |
| 20260509220017 | 53 | 72 | 0.0 | 0.0 | 0.00 | 0.00 | 0.00 | 62 | 1018.0 |
| 20260509215511 | 53 | 72 | 0.0 | 0.0 | 0.00 | 0.00 | 0.00 | 60 | 1018.0 |
| 20260509215007 | 54 | 72 | 0.0 | 0.0 | 0.00 | 0.00 | 0.00 | 59 | 1018.0 |
| 20260509214531 | 54 | 72 | 0.0 | 0.0 | 0.00 | 0.00 | 0.00 | 58 | 1018.2 |
| 20260509214011 | 55 | 72 | 0.0 | 0.0 | 0.00 | 0.00 | 0.00 | 57 | 1018.2 |
| 20260509213503 | 55 | 72 | 0.0 | 0.0 | 0.00 | 0.00 | 0.00 | 56 | 1018.2 |
| 20260509213006 | 55 | 43 | 0.0 | 0.0 | 0.00 | 0.00 | 0.00 | 55 | 1018.2 |
| 20260509212504 | 56 | 43 | 0.0 | 0.0 | 0.00 | 0.00 | 0.00 | 55 | 1018.1 |
| 20260509212006 | 56 | 44 | 0.0 | 0.0 | 0.00 | 0.00 | 0.00 | 54 | 1018.0 |
| 20260509211528 | 56 | 44 | 0.0 | 0.0 | 0.00 | 0.00 | 0.00 | 54 | 1017.9 |
| 20260509211005 | 57 | 36 | 0.0 | 0.0 | 0.00 | 0.00 | 0.00 | 53 | 1017.8 |
| 20260509210508 | 57 | 97 | 0.0 | 0.0 | 0.00 | 0.00 | 0.00 | 53 | 1017.8 |
| 20260509210033 | 57 | 33 | 0.0 | 0.0 | 0.00 | 0.00 | 0.00 | 54 | 1017.7 |
| 20260509205510 | 57 | 35 | 0.0 | 0.0 | 0.00 | 0.00 | 0.00 | 53 | 1017.6 |
| 20260509205006 | 57 | 98 | 0.0 | 0.0 | 0.00 | 0.00 | 0.00 | 53 | 1017.7 |
| 20260509204540 | 58 | 98 | 0.0 | 0.0 | 0.00 | 0.00 | 0.00 | 53 | 1017.6 |
| 20260509203510 | 58 | 331 | 0.0 | 0.0 | 0.00 | 0.00 | 0.00 | 52 | 1017.5 |
| 20260509203023 | 59 | 44 | 0.0 | 0.0 | 0.00 | 0.00 | 0.00 | 51 | 1017.5 |
| 20260509202510 | 59 | 143 | 0.0 | 0.0 | 0.00 | 0.00 | 0.00 | 51 | 1017.4 |
| 20260509202011 | 59 | 35 | 0.0 | 0.0 | 0.00 | 0.00 | 0.00 | 51 | 1017.3 |
| 20260509201508 | 59 | 96 | 0.0 | 0.0 | 0.00 | 0.00 | 0.00 | 50 | 1017.3 |
| 20260509201005 | 59 | 70 | 0.0 | 0.0 | 0.00 | 0.00 | 0.00 | 50 | 1017.2 |
| 20260509200508 | 60 | 91 | 0.0 | 0.0 | 0.00 | 0.00 | 0.00 | 49 | 1017.3 |
| 20260509200011 | 60 | 91 | 0.0 | 1.0 | 0.00 | 0.00 | 0.00 | 49 | 1017.2 |
| 20260509195506 | 60 | 39 | 0.0 | 2.0 | 0.00 | 0.00 | 0.00 | 49 | 1017.2 |
| 20260509195010 | 60 | 96 | 0.0 | 7.0 | 0.00 | 0.00 | 0.00 | 49 | 1017.1 |
| 20260509194516 | 60 | 30 | 1.0 | 7.0 | 0.00 | 0.00 | 0.00 | 48 | 1017.1 |
| 20260509194009 | 61 | 34 | 0.0 | 6.0 | 0.00 | 0.00 | 0.00 | 48 | 1017.0 |
| 20260509193509 | 61 | 78 | 0.0 | 1.0 | 0.00 | 0.00 | 0.00 | 47 | 1017.0 |
| 20260509193032 | 61 | 250 | 0.0 | 2.0 | 0.00 | 0.00 | 0.00 | 47 | 1016.9 |
| 20260509192510 | 62 | 68 | 0.0 | 2.0 | 0.00 | 0.00 | 0.00 | 46 | 1016.9 |
| 20260509192009 | 62 | 27 | 0.0 | 0.0 | 0.00 | 0.00 | 0.00 | 46 | 1016.9 |
| 20260509191522 | 62 | 15 | 0.0 | 0.0 | 0.00 | 0.00 | 0.00 | 46 | 1017.0 |
| 20260509191015 | 62 | 27 | 0.0 | 2.0 | 0.00 | 0.00 | 0.00 | 45 | 1017.0 |
| 20260509190507 | 63 | 24 | 0.0 | 2.0 | 0.00 | 0.00 | 0.00 | 45 | 1016.8 |
| 20260509190027 | 63 | 85 | 0.0 | 1.0 | 0.00 | 0.00 | 0.00 | 44 | 1016.8 |
| 20260509185515 | 64 | 35 | 0.0 | 5.0 | 0.00 | 0.00 | 0.00 | 43 | 1016.8 |
| 20260509185007 | 64 | 30 | 0.0 | 5.0 | 0.00 | 0.00 | 0.00 | 43 | 1016.8 |
| 20260509184528 | 64 | 275 | 0.0 | 4.0 | 0.00 | 0.00 | 0.00 | 42 | 1016.7 |
| 20260509184012 | 65 | 180 | 0.0 | 4.0 | 0.00 | 0.00 | 0.00 | 42 | 1016.6 |
| 20260509183507 | 65 | 96 | 0.0 | 3.0 | 0.00 | 0.00 | 0.00 | 42 | 1016.4 |
| 20260509183018 | 65 | 342 | 0.0 | 1.0 | 0.00 | 0.00 | 0.00 | 42 | 1016.4 |
| 20260509182509 | 66 | 26 | 0.0 | 5.0 | 0.00 | 0.00 | 0.00 | 41 | 1016.3 |
| 20260509182011 | 66 | 207 | 0.0 | 6.0 | 0.00 | 0.00 | 0.00 | 42 | 1016.3 |
| 20260509181520 | 66 | 38 | 1.0 | 6.0 | 0.00 | 0.00 | 0.00 | 42 | 1016.2 |
| 20260509180511 | 66 | 99 | 0.0 | 9.0 | 0.00 | 0.00 | 0.00 | 42 | 1016.3 |
| 20260509180024 | 66 | 1 | 0.0 | 0.0 | 0.00 | 0.00 | 0.00 | 42 | 1016.3 |
| 20260509175514 | 67 | 39 | 4.0 | 9.0 | 0.00 | 0.00 | 0.00 | 42 | 1016.2 |
| 20260509175016 | 67 | 0.0 | 0.0 | 0.00 | 0.00 | 0.00 | 1016.2 | ||
| 20260509174531 | 67 | 0.0 | 0.0 | 0.00 | 0.00 | 0.00 | 40 | 1016.2 | |
| 20260509174013 | 67 | 293 | 0.0 | 4.0 | 0.00 | 0.00 | 0.00 | 40 | 1016.1 |
| 20260509173510 | 67 | 14 | 0.0 | 4.0 | 0.00 | 0.00 | 0.00 | 40 | 1016.1 |
| 20260509173033 | 68 | 39 | 0.0 | 0.0 | 0.00 | 0.00 | 0.00 | 41 | 1016.0 |
| 20260509172510 | 68 | 72 | 1.0 | 4.0 | 0.00 | 0.00 | 0.00 | 41 | 1016.0 |
| 20260509172013 | 68 | 311 | 0.0 | 6.0 | 0.00 | 0.00 | 0.00 | 41 | 1016.0 |
| 20260509171520 | 68 | 46 | 0.0 | 4.0 | 0.00 | 0.00 | 0.00 | 41 | 1016.1 |
| 20260509171013 | 68 | 77 | 1.0 | 9.0 | 0.00 | 0.00 | 0.00 | 40 | 1016.0 |
| 20260509170509 | 68 | 98 | 1.0 | 8.0 | 0.00 | 0.00 | 0.00 | 40 | 1016.1 |
| 20260509170026 | 68 | 16 | 1.0 | 6.0 | 0.00 | 0.00 | 0.00 | 40 | 1016.1 |
| 20260509165514 | 68 | 38 | 0.0 | 0.0 | 0.00 | 0.00 | 0.00 | 40 | 1016.1 |
| 20260509165014 | 69 | 37 | 0.0 | 3.0 | 0.00 | 0.00 | 0.00 | 39 | 1016.2 |
| 20260509164530 | 69 | 80 | 0.0 | 7.0 | 0.00 | 0.00 | 0.00 | 39 | 1016.2 |
| 20260509163018 | 70 | 0.0 | 0.0 | 0.00 | 0.00 | 0.00 | 1016.0 | ||
| 20260509162503 | 70 | 48 | 0.0 | 0.0 | 0.00 | 0.00 | 0.00 | 1016.1 | |
| 20260509160506 | 70 | 0.0 | 0.0 | 0.00 | 0.00 | 0.00 | 1016.1 | ||
| 20260509160012 | 0 | 108 | 0.0 | 0.0 | 0.00 | 0.00 | 0.00 | 1016.1 | |
| 20260509155504 | 0 | 0.0 | 0.0 | 0.00 | 0.00 | 0.00 | 1016.3 | ||
| 20260509155004 | 69 | 0.0 | 0.0 | 0.00 | 0.00 | 0.00 | 1016.3 | ||
| 20260509154512 | 69 | 25 | 0.0 | 0.0 | 0.00 | 0.00 | 0.00 | 1016.4 | |
| 20260509154004 | 69 | 1 | 2.0 | 0.0 | 0.00 | 0.00 | 0.00 | 1016.4 | |
| 20260509153504 | 69 | 38 | 2.0 | 0.0 | 0.00 | 0.00 | 0.00 | 1016.4 | |
| 20260509153012 | 70 | 0.0 | 0.0 | 0.00 | 0.00 | 0.00 | 1016.4 |